Tracking 19908 objects as of 18-Oct-2019
HD Live streaming from Space Station
objects crossing your sky now

COSMOS 1375 DEB

Track COSMOS 1375 DEB now!
10-day predictions


NORAD ID: 16385
Int'l Code: 1982-055Z
Perigee: 944.8 km
Apogee: 971.4 km
Inclination: 65.8 °
Period: 104.1 minutes
Semi major axis: 7329 km
RCS: 0.0186 m2 (small)
Launch date: June 6, 1982
Source: Commonwealth of Independent States (former USSR) (CIS)
Launch site: PLESETSK MISSILE AND SPACE COMPLEX (PKMTR)

Note: This is SATELLITE DEBRIS
aabbcc
Your satellite tracking list
Your tracking list is empty




NASA's NSSDC Master Catalog

Two Line Element Set (TLE):
1 16385U 82055Z   19291.04189090  .00000145  00000-0  20527-3 0  9995
2 16385  65.8290 161.5805 0018094  45.5530 104.0059 13.83652933709474
Source of the keplerian elements: AFSPC